Regional Weather Roundup
Issued by NWS

Home | Current Version | Previous Version | Graphics & Text | Print | Product List | Glossary On
Versions: 1 2 3 4 5 6 7 8 9 10 11 12 13 14 15 16 17 18 19 20 21 22 23 24 25 26 27 28 29 30 31 32 33 34 35 36 37 38 39 40 41 42 43 44 45 46 47 48 49
000
ASUS43 KDMX 180707
RWRIA

WEATHER ROUNDUP FOR IOWA
NATIONAL WEATHER SERVICE DES MOINES IA
200 AM CDT THU SEP 18 2014

NOTE: "FAIR" INDICATES FEW OR NO CLOUDS BELOW 12,000 FEET WITH NO
SIGNIFICANT WEATHER AND/OR OBSTRUCTIONS TO VISIBILITY.

* - THESE STATIONS ARE NOT NWS STATIONS...THUS NOT UNDER NWS
QUALITY CONTROL.  THEY ALSO DO NOT REPORT WEATHER SUCH
AS PRECIPITATION OR FOG.

IAZ001>003-012>014-020>022-031>034-043>046-180800-
   NORTHWEST IOWA

CITY           SKY/WX    TMP DP  RH WIND       PRES   REMARKS
CARROLL *      CLEAR     50  50 100 CALM      30.01S
CHEROKEE *     PTCLDY    55  54  94 SE3       30.00S
DENISON *      PTCLDY    59  57  94 E5        29.99S
LE MARS *        N/A     57  55  94 SW3       29.99S
ORANGE CITY *  CLEAR     59  54  82 E3        29.99F
SHELDON *      PTCLDY    55  54  94 SE6       29.99F
SIOUX CITY     PTCLDY    59  56  89 SE6       29.98F
SPENCER        PTCLDY    52  49  89 NE6       30.02R
STORM LAKE *   CLEAR     55  55 100 SE6       30.01S
$$

IAZ055>058-069>071-079>083-090>094-180800-
   SOUTHWEST IOWA

CITY           SKY/WX    TMP DP  RH WIND       PRES   REMARKS
ATLANTIC *     MOCLDY    55  54  94 NE3       30.00S
AUDUBON *      CLEAR     50  45  81 CALM      30.02S
CLARINDA *     CLEAR     61  59  94 CALM      30.00S
COUNCIL BLFS * PTCLDY    61  61 100 E8        29.98S
CRESTON *      PTCLDY    55  55 100 SE5       30.01S FOG
HARLAN  *      PTCLDY    57  57 100 CALM      30.04S
LAMONI         PTCLDY    59  57  93 SE3       30.01S FOG
SHENANDOAH *   CLEAR     63  61  94 E6        29.98F
$$

IAZ047>049-059>061-072>074-084-180800-
   CENTRAL IOWA

CITY           SKY/WX    TMP DP  RH WIND       PRES   REMARKS
AMES           CLEAR     50  50 100 CALM      30.03R
ANKENY *       CLEAR     52  52 100 CALM      30.02R FOG
CHARITON *     CLEAR     55  54  94 SE6       30.01F FOG
DES MOINES     CLEAR     61  56  83 CALM      30.02R
GRINNELL*      PTCLDY    54  52  94 CALM      30.04R
KNOXVILLE *    CLEAR     57  55  94 E5        30.01R
MARSHALLTOWN   CLEAR     52  51  97 E3        30.03R
PELLA *        PTCLDY    55  54  94 SE3       30.04R
PERRY *          N/A     52  50  93 CALM      30.01F
$$

IAZ004>006-015-016-023>025-035-036-180800-
   NORTH CENTRAL IOWA

CITY           SKY/WX    TMP DP  RH WIND       PRES   REMARKS
ALGONA *       PTCLDY    55  52  88 SE5       30.03R
CLARION *        N/A     54  52  94 SE5       30.03R
ESTHERVILLE    CLEAR     52  50  93 S7        30.02R
FORT DODGE *   PTCLDY    54  50  87 E3        30.03S
MASON CITY     CLEAR     47  46  97 CALM      30.05R
FOREST CITY *  MOCLDY    48  48 100 CALM      30.03S
IOWA FALLS *     N/A     50  48  93 CALM      30.04S
$$

IAZ007>011-017>019-026>030-037>042-050>054-066-180800-
   NORTHEAST IOWA

CITY           SKY/WX    TMP DP  RH WIND       PRES   REMARKS
CEDAR RAPIDS   CLEAR     50  50 100 E3        30.03R
CHARLES CITY * CLEAR     50  48  93 E3        30.05R
CLINTON *      CLEAR     48  45  87 CALM      30.07R
DECORAH *      CLEAR     50  48  93 CALM      30.04S
DUBUQUE        CLEAR     49  46  90 CALM      30.05S
MONTICELLO *   CLEAR     46  46 100 CALM      30.04S FOG
OELWEIN *      CLEAR     52  50  93 SE5       30.05S
WATERLOO       CLEAR     48  45  89 NE5       30.03R
$$

IAZ064-065-067-068-078-180800-
   EAST CENTRAL IOWA

CITY           SKY/WX    TMP DP  RH WIND       PRES   REMARKS
DAVENPORT      CLEAR     48  45  89 CALM      30.05R
IOWA CITY      CLEAR     49  49 100 CALM      30.05R FOG
MT. PLEASANT * CLEAR     52  50  93 E5        30.03S FOG
MUSCATINE *    CLEAR     50  48  93 CALM      30.04S FOG
QUAD CITIES    FOG       48  46  93 CALM      30.04S VSB 3/4
$$

IAZ062-063-075>077-085>089-095>099-180800-
   SOUTHEAST IOWA

CITY           SKY/WX    TMP DP  RH WIND       PRES   REMARKS
BURLINGTON     CLEAR     53  52  96 CALM      30.03R
FAIRFIELD *    CLEAR     52  50  93 CALM      30.03S
FORT MADISON * FOG       52  50  93 CALM      30.03F VSB 1/4
KEOKUK *       FOG       52  52 100 NE3       30.02S VSB 1/2
OSKALOOSA *    MOCLDY    54  52  94 SE3       30.03S
CENTERVILLE *  CLEAR     54  54 100 E3        30.03S
OTTUMWA        PTCLDY    53  51  93 SE3       30.02S
WASHINGTON *   CLEAR     48  48 100 CALM      30.03S FOG
$$

ABBREVIATIONS USED IN REMARKS
   TC - TEMPERATURES IN CELSIUS
  WCI - WIND CHILL INDEX
   HX - HEAT INDEX
  VSB - VISIBILITY
$$



USA.gov is the U.S. government's official web portal to all federal, state and local government web resources and services.